Waarnemingen

Advertentie
Mijn weer
Isle Of Portland, Groot Brittannië (3857): temperatuur & dauwpunt: 21.01.2021 13:00:00 - 27.01.2021 13:00:00 (GMT)Isle Of Portland, Groot Brittannië (3857): windsnelheid & windstoten: 21.01.2021 13:00:00 - 27.01.2021 13:00:00 (GMT)Isle Of Portland, Groot Brittannië (3857): windrichting: 21.01.2021 13:00:00 - 27.01.2021 13:00:00 (GMT)Isle Of Portland, Groot Brittannië (3857): luchtdruk: 21.01.2021 13:00:00 - 27.01.2021 13:00:00 (GMT)Isle Of Portland, Groot Brittannië (3857): zicht: 21.01.2021 13:00:00 - 27.01.2021 13:00:00 (GMT)Isle Of Portland, Groot Brittannië (3857): neerslag: 21.01.2021 13:00:00 - 27.01.2021 13:00:00 (GMT)
Datum & Tijd tt [°C] td [°C] ff [km/u] ff [kn] fx [km/u] fx [kn] dd ppp [hPa] vv [km] rr [mm]
27.01.2021 13:00:00 - - - - - - - - - -
27.01.2021 12:00:00 9,2 9,2 24 13 - - W 1013,7 8 0,0
27.01.2021 11:00:00 9,2 9,1 24 13 - - WZW 1014,0 15 0,0
27.01.2021 10:00:00 8,9 8,9 21 11 - - W 1013,5 10 0,0
27.01.2021 09:00:00 8,8 8,8 24 13 - - W 1013,2 4,5 0,0
27.01.2021 08:00:00 8,7 8,7 24 13 - - WZW 1012,5 10 0,0
27.01.2021 07:00:00 8,4 8,4 21 11 - - WZW 1012,8 6 0,0
27.01.2021 06:00:00 8,4 8,4 16 9 - - W 1012,4 8 0,0
27.01.2021 05:00:00 8,4 8,4 22 12 - - W 1012,5 17 0,0
27.01.2021 04:00:00 8,3 8,3 16 9 - - W 1012,3 21 0,0
27.01.2021 03:00:00 8,5 8,5 21 11 - - W 1012,1 19 0,0
27.01.2021 02:00:00 8,6 8,6 18 10 - - W 1011,8 12 0,0
27.01.2021 01:00:00 8,8 8,8 22 12 - - W 1011,7 15 0,0
27.01.2021 00:00:00 9,2 9,2 22 12 - - W 1011,8 3,4 0,0
26.01.2021 23:00:00 9,1 9,1 24 13 - - W 1011,3 0,4 0,0
26.01.2021 22:00:00 9,2 9,2 26 14 - - W 1011,4 0,1 0,0
26.01.2021 21:00:00 9,1 9,1 34 18 - - ZW 1011,2 0,2 0,0
26.01.2021 20:00:00 8,8 8,8 31 17 48 26 ZW 1011,3 2,2 0,0
26.01.2021 19:00:00 8,5 8,4 35 19 52 28 ZZW 1011,4 1,7 0,4
26.01.2021 18:00:00 8,3 8,1 39 21 52 28 ZZW 1012,0 2,1 0,4
26.01.2021 17:00:00 7,7 7,5 35 19 50 27 ZZW 1012,1 3,7 0,0
26.01.2021 16:00:00 7,3 7,0 34 18 50 27 ZZW 1012,9 2,8 0,4
26.01.2021 15:00:00 6,8 6,2 35 19 54 29 Z 1013,6 3,9 0,2
26.01.2021 14:00:00 6,5 5,8 34 18 52 28 Z 1014,3 4,3 0,0
26.01.2021 13:00:00 6,8 5,1 41 22 57 31 ZZW 1014,9 11 0,2
26.01.2021 12:00:00 6,9 5,4 39 21 54 29 Z 1016,2 13 0,2
26.01.2021 11:00:00 6,5 5,1 31 17 - - Z 1017,0 22 0,0
26.01.2021 10:00:00 5,9 4,6 34 18 46 25 ZZW 1017,6 8 0,4
26.01.2021 09:00:00 6,2 4,2 35 19 52 28 ZW 1017,7 15 0,2
26.01.2021 08:00:00 7,6 3,8 28 15 - - ZW 1017,2 30 0,0
26.01.2021 07:00:00 7,5 3,4 29 16 - - ZW 1017,2 40 0,0
26.01.2021 06:00:00 7,6 3,6 31 17 - - ZW 1017,4 40 0,0
26.01.2021 05:00:00 6,3 3,0 29 16 - - ZW 1017,8 27 0,0
26.01.2021 04:00:00 7,2 2,4 26 14 - - WZW 1017,9 40 0,0
26.01.2021 03:00:00 7,0 1,7 22 12 - - WZW 1018,1 30 0,0
26.01.2021 02:00:00 6,7 1,4 22 12 - - W 1018,2 35 0,0
26.01.2021 01:00:00 6,6 1,2 22 12 - - W 1017,9 40 0,0
26.01.2021 00:00:00 6,4 0,6 28 15 - - W 1018,0 45 0,0
25.01.2021 23:00:00 6,3 -0,1 29 16 - - W 1017,8 40 0,0
25.01.2021 22:00:00 6,0 -0,1 28 15 - - W 1017,9 35 0,0
25.01.2021 21:00:00 6,1 0,7 29 16 - - W 1017,5 50 0,0
25.01.2021 20:00:00 6,2 0,6 31 17 - - W 1017,1 45 0,0
25.01.2021 19:00:00 6,3 0,5 31 17 - - WNW 1016,4 40 0,0
25.01.2021 18:00:00 6,1 0,4 26 14 - - WNW 1015,8 50 0,0
25.01.2021 17:00:00 5,9 0,8 22 12 - - WNW 1015,2 45 0,0
25.01.2021 16:00:00 6,1 0,7 31 17 - - WNW 1014,7 35 0,0
25.01.2021 15:00:00 5,9 1,2 28 15 - - WNW 1014,3 40 0,0
25.01.2021 14:00:00 5,7 0,1 24 13 - - WNW 1013,7 35 0,0
25.01.2021 13:00:00 5,7 0,4 21 11 - - NW 1013,4 30 0,0
25.01.2021 12:00:00 5,4 0,5 22 12 - - NW 1012,9 40 0,0
25.01.2021 11:00:00 4,7 -0,3 21 11 - - NW 1012,4 30 0,0
25.01.2021 10:00:00 4,3 -1,4 21 11 - - NW 1011,6 40 0,0
25.01.2021 09:00:00 3,0 -1,8 13 7 - - NNW 1011,0 40 0,0
25.01.2021 08:00:00 1,3 -1,8 22 12 - - NNW 1009,9 20 0,0
25.01.2021 07:00:00 1,4 -2,1 24 13 - - NNW 1008,8 35 0,0
25.01.2021 06:00:00 0,6 -2,4 24 13 - - N 1007,9 24 0,0
25.01.2021 05:00:00 0,8 -1,2 28 15 - - N 1007,2 13 0,0
25.01.2021 04:00:00 1,1 -0,4 34 18 - - N 1006,1 14 0,0
25.01.2021 03:00:00 1,3 -0,7 29 16 46 25 N 1005,2 20 0,0
25.01.2021 02:00:00 1,9 0,4 24 13 - - N 1004,1 17 0,0
25.01.2021 01:00:00 2,0 0,5 28 15 46 25 NNW 1002,9 20 0,0
25.01.2021 00:00:00 1,9 -0,3 28 15 - - NNW 1001,8 26 0,2
24.01.2021 23:00:00 1,6 -0,3 29 16 - - NNW 1000,3 21 0,0
24.01.2021 22:00:00 2,5 1,1 34 18 48 26 NNW 998,7 20 0,0
24.01.2021 21:00:00 3,9 1,2 34 18 50 27 WNW 998,0 40 0,0
24.01.2021 20:00:00 3,7 1,7 37 20 48 26 NW 997,5 45 0,0
24.01.2021 19:00:00 3,9 1,6 35 19 54 29 NW 996,8 26 0,0
24.01.2021 18:00:00 3,0 1,5 42 23 76 41 NW 995,9 30 0,0
24.01.2021 17:00:00 4,2 2,0 54 29 78 42 WNW 994,0 30 0,0
24.01.2021 16:00:00 6,0 1,6 48 26 61 33 W 994,0 12 0,2
24.01.2021 15:00:00 6,0 2,1 31 17 - - W 994,7 20 0,0
24.01.2021 14:00:00 5,8 2,0 35 19 50 27 W 994,9 30 0,0
24.01.2021 13:00:00 5,7 2,4 37 20 48 26 W 995,3 20 0,0
24.01.2021 12:00:00 5,2 1,7 39 21 50 27 WNW 995,6 35 0,0
24.01.2021 11:00:00 5,7 2,5 35 19 50 27 W 995,6 30 0,0
24.01.2021 10:00:00 5,1 1,9 39 21 52 28 W 995,3 40 0,0
24.01.2021 09:00:00 4,2 2,0 39 21 50 27 WNW 995,3 40 0,0
24.01.2021 08:00:00 5,4 3,1 35 19 52 28 WNW 995,1 50 0,0
24.01.2021 07:00:00 5,0 4,0 34 18 50 27 ZZW 995,1 23 0,6
24.01.2021 06:00:00 3,7 2,7 37 20 59 32 Z 995,8 28 2,0
24.01.2021 05:00:00 3,9 2,5 48 26 61 33 WZW 997,1 3,7 0,4
24.01.2021 04:00:00 6,2 0,6 22 12 - - Z 997,6 45 0,0
24.01.2021 03:00:00 4,7 -0,4 13 7 - - Z 998,6 50 0,0
24.01.2021 02:00:00 4,2 -1,3 15 8 - - ZW 999,5 30 0,0
24.01.2021 01:00:00 3,7 -1,9 13 7 - - WZW 999,8 19 0,0
24.01.2021 00:00:00 3,3 -2,6 11 6 - - WZW 1000,2 28 0,0
23.01.2021 23:00:00 4,0 -2,1 15 8 - - W 1000,0 50 0,0
23.01.2021 22:00:00 4,2 -2,2 13 7 - - WNW 999,6 50 0,0
23.01.2021 21:00:00 3,7 -2,3 11 6 - - NW 999,7 40 0,0
23.01.2021 20:00:00 4,1 -2,6 18 10 - - NW 999,5 50 0,0
23.01.2021 19:00:00 4,0 -1,5 22 12 - - NW 999,0 30 0,0
23.01.2021 18:00:00 4,3 -2,9 26 14 - - NNW 998,6 45 0,0
23.01.2021 17:00:00 4,5 -2,3 26 14 - - NNW 997,9 35 0,0
23.01.2021 16:00:00 5,4 -2,5 28 15 - - NW 997,7 40 0,0
23.01.2021 15:00:00 5,6 -1,2 28 15 - - NNW 997,6 40 0,0
23.01.2021 14:00:00 5,4 -0,6 26 14 - - NW 997,6 30 0,0
23.01.2021 13:00:00 6,0 0,9 26 14 - - NW 997,0 40 0,0
23.01.2021 12:00:00 5,3 1,5 28 15 - - NNW 996,9 35 0,0
23.01.2021 11:00:00 4,5 1,5 24 13 - - NNW 996,4 35 0,0
23.01.2021 10:00:00 3,6 1,2 16 9 - - N 995,8 21 0,0
23.01.2021 09:00:00 3,0 0,7 15 8 - - N 995,1 22 0,0
23.01.2021 08:00:00 3,8 1,0 13 7 - - N 994,4 14 0,0
23.01.2021 07:00:00 3,9 0,1 15 8 - - NNO 993,5 40 0,0
23.01.2021 06:00:00 3,5 1,7 15 8 - - NO 993,3 40 0,0
23.01.2021 05:00:00 4,1 2,0 16 9 - - NO 993,2 35 0,0
23.01.2021 04:00:00 4,1 2,5 13 7 - - ONO 993,6 28 0,0
23.01.2021 03:00:00 3,6 2,0 13 7 - - NO 994,3 40 0,0
23.01.2021 02:00:00 4,9 1,2 2 1 - - ONO 994,7 35 0,0
23.01.2021 01:00:00 5,4 1,8 9 5 - - W 995,4 27 0,0
23.01.2021 00:00:00 5,5 2,2 15 8 - - WNW 995,8 30 0,0
22.01.2021 23:00:00 5,3 2,0 24 13 - - WNW 996,0 45 0,0
22.01.2021 22:00:00 5,6 2,4 29 16 - - WNW 996,1 28 0,0
22.01.2021 21:00:00 5,5 1,7 37 20 55 30 WNW 995,2 35 0,0
22.01.2021 20:00:00 6,0 2,6 44 24 59 32 WNW 995,2 30 0,0
22.01.2021 19:00:00 6,4 2,3 46 25 63 34 WNW 994,8 40 0,0
22.01.2021 18:00:00 7,1 3,0 42 23 55 30 W 994,5 45 0,0
22.01.2021 17:00:00 6,3 1,5 29 16 68 37 W 994,1 35 0,0
22.01.2021 16:00:00 7,5 3,8 34 18 48 26 W 994,3 19 0,0
22.01.2021 15:00:00 7,7 3,4 29 16 - - W 994,1 24 0,0
22.01.2021 14:00:00 8,2 3,9 26 14 - - W 993,9 15 0,0
22.01.2021 13:00:00 8,4 3,6 24 13 - - W 994,4 24 0,0
22.01.2021 12:00:00 7,7 3,2 26 14 - - W 994,7 19 0,0
22.01.2021 11:00:00 7,7 4,1 21 11 - - W 994,7 12 0,0
22.01.2021 10:00:00 7,5 4,2 18 10 - - W 994,4 21 0,0
22.01.2021 09:00:00 6,7 3,2 22 12 - - W 993,7 40 0,0
22.01.2021 08:00:00 6,6 3,4 26 14 - - WNW 993,0 50 0,0
22.01.2021 07:00:00 6,4 3,2 22 12 - - WNW 992,3 45 0,0
22.01.2021 06:00:00 6,5 3,1 21 11 - - W 992,0 40 0,0
22.01.2021 05:00:00 6,3 3,0 21 11 - - W 991,6 40 0,0
22.01.2021 04:00:00 6,2 2,8 22 12 - - WNW 991,2 40 0,0
22.01.2021 03:00:00 6,2 2,9 28 15 - - W 990,6 30 0,0
22.01.2021 02:00:00 6,6 3,1 28 15 - - WNW 990,2 28 0,0
22.01.2021 01:00:00 6,6 2,8 31 17 - - WNW 989,8 28 0,0
22.01.2021 00:00:00 6,8 2,9 28 15 - - W 989,6 22 0,0
21.01.2021 23:00:00 6,7 2,6 37 20 - - WNW 988,9 35 0,0
21.01.2021 22:00:00 6,7 2,9 29 16 - - WNW 988,4 40 0,0
21.01.2021 21:00:00 6,6 2,5 24 13 - - NW 987,7 30 0,0
21.01.2021 20:00:00 7,0 3,3 26 14 - - NW 986,8 30 0,0
21.01.2021 19:00:00 7,3 3,0 22 12 - - NW 986,0 30 0,0
21.01.2021 18:00:00 7,5 3,6 16 9 - - NW 985,3 27 0,0
21.01.2021 17:00:00 7,7 3,2 18 10 - - NW 984,9 29 0,0
21.01.2021 16:00:00 8,1 3,9 16 9 - - WNW 984,9 27 0,0
21.01.2021 15:00:00 8,2 3,6 16 9 - - W 985,0 18 0,0
21.01.2021 14:00:00 8,7 3,8 26 14 - - WZW 986,0 14 0,0
21.01.2021 13:00:00 8,7 4,8 28 15 - - WZW 987,1 10 0,0

tt = temperatuur
td = dauwpunt
ff = windsnelheid
fx = windstoten
dd = windrichting
ppp = luchtdruk
vv = zicht
rr = neerslag

Weerstations in de omgeving